Regional Weather Roundup
Issued by NWS Bismarck, ND

Home | Current Version | Previous Version | Text Only | Print | Product List | Glossary On
Versions: 1 2 3 4 5 6 7 8 9 10 11 12 13 14 15 16 17 18 19 20 21 22 23 24 25 26 27 28 29 30 31 32 33 34 35 36 37 38 39 40 41 42 43 44 45 46 47 48 49 50
000
ASUS43 KBIS 251520
RWRBIS

NWR BROADCAST TEXT
NATIONAL WEATHER SERVICE BISMARCK ND
900 AM CST THU DEC 25 2014

NOTE: "FAIR" INDICATES FEW OR NO CLOUDS BELOW 12,000 FEET WITH NO
SIGNIFICANT WEATHER AND/OR OBSTRUCTIONS TO VISIBILITY.


CITY           SKY/WX    TMP DP  RH WIND       PRES   REMARKS
WILLISTON      CLOUDY    25  19  78 N12       29.78R WCI  14
MINOT          CLOUDY    26  21  81 NW8       29.71R WCI  18
MINOT AFB      CLOUDY    26  25  98 NW10      29.70R WCI  15
BISMARCK       CLOUDY    27  23  85 NW9       29.71R WCI  18
DICKINSON      CLOUDY    26  22  84 NW10      29.70R FOG     WCI  16
GARRISON         N/A     27  25  92 NW8       29.69R WCI  19
HETTINGER ARPT CLOUDY    25  21  85 N13       29.71R WCI  14
JAMESTOWN      MOCLDY    22  18  85 N10       29.66R WCI  11
BEACH          CLOUDY    25  25 100 NW12      29.76R WCI  14
CARRINGTON     PTSUNNY   18  18 100 MISG      29.70R
CROSBY         CLOUDY    25  23  93 NW16      29.77R WCI  12
HARVEY         CLOUDY    25  25 100 NW12      29.69R WCI  14
HAZEN          CLOUDY    28  25  86 NW8       29.73R
LINTON         CLOUDY    27  27 100 N10       29.69R WCI  17
MANDAN         CLOUDY    25  23  93 NW9       29.71R WCI  15
OAKES            N/A     25  25 100 NW10      29.67R WCI  15
RUGBY          CLOUDY    25  23  93 NW14      29.68R WCI  13
STANLEY        CLOUDY    23  23 100 NW15G22   29.71R WCI  10
TIOGA          CLOUDY    23  23 100 NW14G24   29.76R WCI  11
WATFORD CITY   CLOUDY    25  23  93 NW15G22   29.74R WCI  12
$$

CITY           SKY/WX    TMP DP  RH WIND       PRES   REMARKS
GRAND FORKS    CLOUDY    26  22  84 W9        29.67R WCI  17
GRAND FORKS AF CLOUDY    26  25  99 NW10      29.67R WCI  15
DEVILS LAKE    CLOUDY    23  19  86 W8        29.67R WCI  14
FARGO          CLOUDY    28  24  85 NW8       29.67R WCI  20
CANDO          CLOUDY    23  23 100 W10       29.67R WCI  12
CAVALIER       CLOUDY    27  23  86 N10       29.67R WCI  17
GWINNER        SUNNY     25  25 100 CALM      29.69R
LANGDON        CLOUDY    25  23  93 N13       29.63R WCI  13
ROLLA          CLOUDY    25  25 100 NW13      29.66R WCI  13
WALHALLA         N/A     25  25 100 NW12      29.67R WCI  14
$$

CITY           SKY/WX    TMP DP  RH WIND       PRES   REMARKS
ABERDEEN       CLOUDY    31  25  78 N13       29.67R
MOBRIDGE       CLOUDY    30  25  81 NW7       29.67R
BUFFALO          N/A     26  22  84 N16       29.63R WCI  14
RAPID CITY     SNOW      30  28  92 N17       29.65R VSB 1/2 WCI  18
GLASGOW        CLOUDY    25  18  74 NW17      29.83R WCI  12
SIDNEY         CLOUDY    25  19  80 NW14      29.83R WCI  13
WOLF POINT     CLOUDY    26  19  74 W7        29.84R WCI  18
GLENDIVE       CLOUDY    27  19  74 NW12      29.80R WCI  16
MILES CITY     CLOUDY    26  22  84 N12       29.79R WCI  16
BAKER          CLOUDY    24  21  88 N9        29.75R WCI  14
$$

CITY           SKY/WX    TMP DP  RH WIND       PRES   REMARKS
BILLINGS       LGT SNOW  25  24  96 NE7       29.79R FOG     WCI  17
GREAT FALLS    CLOUDY    23  20  88 CALM      29.86R
REGINA         FLURRIES  18  14  86 NW18      29.79R WCI   2
ESTEVAN        FLURRIES  23  19  86 NW13      29.73R WCI  11
$$




USA.gov is the U.S. government's official web portal to all federal, state and local government web resources and services.